• In Lithuania
  • List of Countries
  • For 7 days
  • Water Temperature
  • Satellite Maps
  • Weather Map
  • Weather Widgets
  • user-avatar
    Login

    Hourly Weather Natal

    Today, 20 September, Thursday

    Time Temperature Precipitation Wind Pressure Humidity
    00:00 +24°C° 0 mm 6 mps 761 mmHg 83%
    01:00 +24°C° 0 mm 6 mps 761 mmHg 84%
    02:00 +24°C° 0 mm 6 mps 760 mmHg 84%
    03:00 +24°C° 0 mm 6 mps 760 mmHg 84%
    04:00 +24°C° 0 mm 6 mps 760 mmHg 85%
    05:00 +24°C° 0.1 mm 6 mps 760 mmHg 84%
    06:00 +24°C° 0.1 mm 6 mps 760 mmHg 82%
    07:00 +26°C° 0.1 mm 7 mps 760 mmHg 81%
    08:00 +28°C° 0 mm 7 mps 760 mmHg 70%
    09:00 +30°C° 0 mm 7 mps 761 mmHg 60%
    10:00 +33°C° 0 mm 8 mps 761 mmHg 49%
    11:00 +34°C° 0 mm 8 mps 760 mmHg 48%
    12:00 +34°C° 0 mm 8 mps 760 mmHg 46%
    13:00 +35°C° 0 mm 8 mps 760 mmHg 44%
    14:00 +34°C° 0 mm 8 mps 759 mmHg 46%
    15:00 +34°C° 0 mm 8 mps 759 mmHg 48%
    16:00 +33°C° 0 mm 8 mps 759 mmHg 50%
    17:00 +32°C° 0 mm 8 mps 759 mmHg 58%
    18:00 +29°C° 0 mm 7 mps 759 mmHg 66%
    19:00 +27°C° 0 mm 6 mps 759 mmHg 73%
    20:00 +26°C° 0 mm 6 mps 760 mmHg 76%
    21:00 +26°C° 0 mm 6 mps 760 mmHg 80%
    22:00 +26°C° 0 mm 6 mps 761 mmHg 83%
    23:00 +26°C° 0.1 mm 6 mps 761 mmHg 83%

    Tomorrow, 21 September, Friday

    Time Temperature Precipitation Wind Pressure Humidity
    00:00 +26°C° 0.1 mm 6 mps 761 mmHg 83%
    01:00 +26°C° 0.1 mm 6 mps 761 mmHg 84%
    02:00 +26°C° 0.1 mm 6 mps 760 mmHg 85%
    03:00 +24°C° 0.1 mm 6 mps 760 mmHg 87%
    04:00 +24°C° 0.1 mm 6 mps 759 mmHg 89%
    05:00 +24°C° 0 mm 6 mps 760 mmHg 88%
    06:00 +24°C° 0 mm 6 mps 760 mmHg 86%
    07:00 +24°C° 0 mm 6 mps 760 mmHg 85%
    08:00 +27°C° 0 mm 6 mps 761 mmHg 74%
    09:00 +30°C° 0 mm 7 mps 761 mmHg 63%
    10:00 +33°C° 0 mm 7 mps 761 mmHg 53%
    11:00 +34°C° 0 mm 8 mps 761 mmHg 50%
    12:00 +34°C° 0 mm 8 mps 760 mmHg 47%
    13:00 +35°C° 0 mm 8 mps 760 mmHg 45%
    14:00 +34°C° 0 mm 8 mps 759 mmHg 47%
    15:00 +34°C° 0 mm 8 mps 759 mmHg 49%
    16:00 +33°C° 0 mm 8 mps 758 mmHg 52%
    17:00 +30°C° 0 mm 7 mps 759 mmHg 60%
    18:00 +28°C° 0 mm 7 mps 759 mmHg 68%
    19:00 +27°C° 0 mm 6 mps 759 mmHg 76%
    20:00 +26°C° 0 mm 6 mps 759 mmHg 79%
    21:00 +26°C° 0 mm 6 mps 760 mmHg 82%
    22:00 +24°C° 0 mm 6 mps 761 mmHg 85%
    23:00 +25°C° 0 mm 5 mps 760 mmHg 87%

    Day after tomorrow, 22 September, Saturday

    Time Temperature Precipitation Wind Pressure Humidity
    00:00 +25°C° 0 mm 5 mps 760 mmHg 88%
    01:00 +23°C° 0 mm 5 mps 760 mmHg 90%
    02:00 +23°C° 0 mm 5 mps 759 mmHg 91%
    03:00 +23°C° 0 mm 5 mps 759 mmHg 92%
    04:00 +23°C° 0 mm 5 mps 759 mmHg 93%
    05:00 +23°C° 0.1 mm 5 mps 759 mmHg 91%
    06:00 +23°C° 0.1 mm 6 mps 759 mmHg 90%
    07:00 +24°C° 0.1 mm 6 mps 759 mmHg 88%
    08:00 +27°C° 0.1 mm 6 mps 760 mmHg 77%
    09:00 +29°C° 0.1 mm 7 mps 760 mmHg 67%
    10:00 +33°C° 0.1 mm 7 mps 761 mmHg 56%
    11:00 +33°C° 0 mm 7 mps 760 mmHg 54%
    12:00 +34°C° 0 mm 7 mps 759 mmHg 52%
    13:00 +34°C° 0 mm 8 mps 759 mmHg 51%
    14:00 +34°C° 0 mm 7 mps 758 mmHg 51%
    15:00 +33°C° 0 mm 7 mps 758 mmHg 52%
    16:00 +33°C° 0 mm 7 mps 757 mmHg 53%
    17:00 +30°C° 0 mm 7 mps 758 mmHg 61%
    18:00 +28°C° 0 mm 6 mps 758 mmHg 70%
    19:00 +27°C° 0 mm 6 mps 758 mmHg 78%
    20:00 +26°C° 0 mm 6 mps 759 mmHg 81%
    21:00 +26°C° 0 mm 6 mps 759 mmHg 85%
    22:00 +24°C° 0 mm 6 mps 760 mmHg 88%
    23:00 +25°C° 0 mm 5 mps 760 mmHg 90%

    23 September, Sunday

    Time Temperature Precipitation Wind Pressure Humidity
    00:00 +25°C° 0 mm 5 mps 759 mmHg 91%
    01:00 +23°C° 0 mm 5 mps 759 mmHg 93%
    02:00 +23°C° 0 mm 5 mps 759 mmHg 93%
    03:00 +23°C° 0 mm 5 mps 759 mmHg 94%
    04:00 +23°C° 0 mm 5 mps 758 mmHg 94%
    05:00 +23°C° 0 mm 5 mps 759 mmHg 93%
    06:00 +25°C° 0 mm 5 mps 759 mmHg 91%
    07:00 +25°C° 0 mm 5 mps 759 mmHg 89%
    08:00 +27°C° 0 mm 6 mps 760 mmHg 78%
    09:00 +30°C° 0 mm 6 mps 760 mmHg 66%
    10:00 +33°C° 0 mm 7 mps 760 mmHg 54%
    11:00 +34°C° 0 mm 7 mps 760 mmHg 52%
    12:00 +34°C° 0 mm 7 mps 759 mmHg 49%
    13:00 +35°C° 0 mm 7 mps 759 mmHg 47%
    14:00 +34°C° 0 mm 7 mps 758 mmHg 50%
    15:00 +33°C° 0 mm 7 mps 758 mmHg 52%
    16:00 +33°C° 0 mm 7 mps 758 mmHg 55%
    17:00 +30°C° 0 mm 7 mps 758 mmHg 62%
    18:00 +28°C° 0 mm 7 mps 759 mmHg 70%
    19:00 +27°C° 0 mm 6 mps 759 mmHg 78%
    20:00 +26°C° 0 mm 6 mps 759 mmHg 81%
    21:00 +26°C° 0 mm 6 mps 760 mmHg 84%
    22:00 +24°C° 0 mm 6 mps 760 mmHg 87%
    23:00 +24°C° 0.1 mm 6 mps 760 mmHg 88%

    24 September, Monday

    Time Temperature Precipitation Wind Pressure Humidity
    00:00 +24°C° 0.1 mm 6 mps 760 mmHg 90%
    01:00 +25°C° 0.1 mm 5 mps 759 mmHg 91%
    02:00 +23°C° 0.2 mm 5 mps 759 mmHg 92%
    03:00 +23°C° 0.2 mm 5 mps 759 mmHg 93%
    04:00 +23°C° 0.2 mm 5 mps 759 mmHg 94%
    05:00 +24°C° 0.2 mm 6 mps 759 mmHg 93%
    06:00 +24°C° 0.2 mm 6 mps 760 mmHg 91%
    07:00 +24°C° 0.2 mm 6 mps 760 mmHg 90%
    08:00 +27°C° 0.1 mm 6 mps 760 mmHg 81%
    09:00 +29°C° 0.1 mm 7 mps 760 mmHg 71%
    10:00 +32°C° 0.1 mm 7 mps 761 mmHg 62%
    11:00 +33°C° 0 mm 7 mps 760 mmHg 58%
    12:00 +34°C° 0 mm 7 mps 759 mmHg 53%
    13:00 +35°C° 0 mm 7 mps 759 mmHg 49%
    14:00 +34°C° 0 mm 7 mps 758 mmHg 51%
    15:00 +33°C° 0 mm 7 mps 758 mmHg 52%
    16:00 +33°C° 0 mm 7 mps 758 mmHg 54%
    17:00 +30°C° 0 mm 7 mps 758 mmHg 62%
    18:00 +28°C° 0 mm 6 mps 759 mmHg 70%
    19:00 +27°C° 0 mm 6 mps 759 mmHg 78%
    20:00 +26°C° 0 mm 6 mps 759 mmHg 81%
    21:00 +26°C° 0 mm 6 mps 760 mmHg 84%
    22:00 +24°C° 0 mm 6 mps 760 mmHg 87%
    23:00 +24°C° 0 mm 6 mps 760 mmHg 88%

    25 September, Tuesday

    Time Temperature Precipitation Wind Pressure Humidity
    00:00 +25°C° 0 mm 5 mps 760 mmHg 89%
    01:00 +23°C° 0 mm 5 mps 759 mmHg 91%
    02:00 +23°C° 0 mm 5 mps 759 mmHg 92%
    03:00 +23°C° 0 mm 5 mps 759 mmHg 92%
    04:00 +23°C° 0 mm 5 mps 759 mmHg 93%
    05:00 +23°C° 0 mm 5 mps 759 mmHg 91%
    06:00 +23°C° 0 mm 5 mps 760 mmHg 89%
    07:00 +25°C° 0 mm 5 mps 760 mmHg 87%
    08:00 +27°C° 0 mm 6 mps 760 mmHg 76%
    09:00 +30°C° 0 mm 6 mps 760 mmHg 65%
    10:00 +33°C° 0 mm 7 mps 760 mmHg 54%
    11:00 +33°C° 0 mm 7 mps 760 mmHg 53%
    12:00 +34°C° 0 mm 7 mps 759 mmHg 51%
    13:00 +34°C° 0 mm 7 mps 759 mmHg 50%
    14:00 +34°C° 0 mm 7 mps 758 mmHg 52%
    15:00 +33°C° 0 mm 7 mps 758 mmHg 53%
    16:00 +33°C° 0 mm 7 mps 757 mmHg 55%
    17:00 +30°C° 0 mm 7 mps 758 mmHg 63%
    18:00 +28°C° 0 mm 6 mps 758 mmHg 71%
    19:00 +26°C° 0 mm 6 mps 759 mmHg 79%
    20:00 +26°C° 0 mm 6 mps 759 mmHg 82%
    21:00 +25°C° 0 mm 5 mps 759 mmHg 86%
    22:00 +25°C° 0 mm 5 mps 760 mmHg 89%
    23:00 +25°C° 0.1 mm 5 mps 759 mmHg 90%
    Show more